When you browse on this site, cookies collect data to enhance your experience and personalize the content and advertising you see.
Visit our Privacy Policy to learn more. By continuing to use the site, you agree to this use of cookies and data.

Tiempo cada hora Barcelona

Hoy, 19 Septiembre, Sábado

Tiempo Temperatura Precipitaciones Viento Presión Humedad
00:00 +25°C° 0.6 mm 2 mps 758 mmHg 77%
01:00 +25°C° 0.3 mm 2 mps 758 mmHg 76%
02:00 +25°C° 0.3 mm 2 mps 758 mmHg 74%
03:00 +25°C° 0.3 mm 2 mps 757 mmHg 73%
04:00 +25°C° 0.1 mm 2 mps 757 mmHg 73%
05:00 +25°C° 0.1 mm 2 mps 757 mmHg 72%
06:00 +24°C° 0.1 mm 1 mps 757 mmHg 72%
07:00 +26°C° 0.1 mm 1 mps 757 mmHg 66%
08:00 +27°C° 0.1 mm 2 mps 758 mmHg 60%
09:00 +28°C° 0.1 mm 2 mps 758 mmHg 54%
10:00 +29°C° 0.2 mm 2 mps 757 mmHg 50%
11:00 +30°C° 0.2 mm 3 mps 757 mmHg 45%
12:00 +30°C° 0.2 mm 3 mps 757 mmHg 41%
13:00 +30°C° 0 mm 4 mps 756 mmHg 42%
14:00 +30°C° 0 mm 4 mps 756 mmHg 42%
15:00 +30°C° 0 mm 5 mps 756 mmHg 43%
16:00 +29°C° 0 mm 5 mps 756 mmHg 45%
17:00 +28°C° 0 mm 5 mps 756 mmHg 46%
18:00 +28°C° 0 mm 5 mps 756 mmHg 47%
19:00 +27°C° 0 mm 4 mps 756 mmHg 48%
20:00 +27°C° 0 mm 4 mps 756 mmHg 48%
21:00 +27°C° 0 mm 4 mps 757 mmHg 48%
22:00 +26°C° 0 mm 4 mps 757 mmHg 49%
23:00 +26°C° 0 mm 4 mps 757 mmHg 49%

Mañana, 20 Septiembre, Domingo

Tiempo Temperatura Precipitaciones Viento Presión Humedad
00:00 +26°C° 0 mm 4 mps 757 mmHg 49%
01:00 +26°C° 0 mm 3 mps 757 mmHg 50%
02:00 +25°C° 0 mm 3 mps 756 mmHg 51%
03:00 +25°C° 0 mm 3 mps 756 mmHg 52%
04:00 +24°C° 0 mm 3 mps 756 mmHg 53%
05:00 +24°C° 0 mm 2 mps 757 mmHg 54%
06:00 +24°C° 0 mm 2 mps 757 mmHg 56%
07:00 +25°C° 0 mm 2 mps 757 mmHg 52%
08:00 +26°C° 0 mm 2 mps 757 mmHg 48%
09:00 +27°C° 0 mm 2 mps 757 mmHg 44%
10:00 +28°C° 0 mm 2 mps 757 mmHg 42%
11:00 +29°C° 0 mm 2 mps 757 mmHg 40%
12:00 +30°C° 0 mm 3 mps 757 mmHg 37%
13:00 +30°C° 0 mm 3 mps 757 mmHg 38%
14:00 +30°C° 0 mm 3 mps 757 mmHg 39%
15:00 +30°C° 0 mm 4 mps 757 mmHg 40%
16:00 +29°C° 0 mm 4 mps 757 mmHg 45%
17:00 +28°C° 0 mm 4 mps 756 mmHg 49%
18:00 +27°C° 0 mm 4 mps 756 mmHg 53%
19:00 +27°C° 0 mm 4 mps 757 mmHg 56%
20:00 +26°C° 0 mm 3 mps 757 mmHg 58%
21:00 +26°C° 0 mm 3 mps 758 mmHg 61%
22:00 +26°C° 0.2 mm 3 mps 758 mmHg 61%
23:00 +26°C° 0.2 mm 3 mps 758 mmHg 61%

Pasado mañana, 21 Septiembre, Lunes

Tiempo Temperatura Precipitaciones Viento Presión Humedad
00:00 +25°C° 0.2 mm 3 mps 758 mmHg 61%
01:00 +25°C° 0.1 mm 3 mps 757 mmHg 61%
02:00 +25°C° 0.1 mm 2 mps 757 mmHg 60%
03:00 +24°C° 0.1 mm 2 mps 757 mmHg 59%
04:00 +24°C° 0.2 mm 2 mps 757 mmHg 59%
05:00 +24°C° 0.2 mm 2 mps 757 mmHg 60%
06:00 +24°C° 0.2 mm 3 mps 758 mmHg 60%
07:00 +25°C° 0.3 mm 3 mps 758 mmHg 57%
08:00 +26°C° 0.3 mm 3 mps 758 mmHg 55%
09:00 +27°C° 0.3 mm 4 mps 758 mmHg 52%
10:00 +27°C° 0.1 mm 4 mps 758 mmHg 51%
11:00 +28°C° 0.1 mm 4 mps 758 mmHg 51%
12:00 +28°C° 0.1 mm 4 mps 758 mmHg 50%
13:00 +28°C° 0.1 mm 4 mps 758 mmHg 52%
14:00 +28°C° 0.1 mm 4 mps 757 mmHg 55%
15:00 +27°C° 0.1 mm 3 mps 757 mmHg 58%
16:00 +27°C° 0.1 mm 3 mps 757 mmHg 61%
17:00 +26°C° 0.1 mm 2 mps 757 mmHg 65%
18:00 +25°C° 0.1 mm 2 mps 757 mmHg 68%
19:00 +25°C° 0.3 mm 2 mps 757 mmHg 69%
20:00 +25°C° 0.3 mm 1 mps 758 mmHg 70%
21:00 +25°C° 0.3 mm 1 mps 758 mmHg 71%
22:00 +25°C° 0.3 mm 1 mps 758 mmHg 71%
23:00 +24°C° 0.3 mm 1 mps 757 mmHg 72%

22 Septiembre, Martes

Tiempo Temperatura Precipitaciones Viento Presión Humedad
00:00 +24°C° 0.3 mm 1 mps 757 mmHg 72%
01:00 +24°C° 0.1 mm 1 mps 757 mmHg 72%
02:00 +24°C° 0.1 mm 1 mps 756 mmHg 72%
03:00 +24°C° 0.1 mm 1 mps 756 mmHg 72%
04:00 +23°C° 0 mm 1 mps 756 mmHg 71%
05:00 +23°C° 0 mm 1 mps 756 mmHg 71%
06:00 +23°C° 0 mm 1 mps 756 mmHg 70%
07:00 +24°C° 0.1 mm 1 mps 756 mmHg 67%
08:00 +25°C° 0.1 mm 1 mps 757 mmHg 63%
09:00 +26°C° 0.1 mm 1 mps 757 mmHg 60%
10:00 +26°C° 0.2 mm 2 mps 756 mmHg 59%
11:00 +27°C° 0.2 mm 2 mps 756 mmHg 58%
12:00 +27°C° 0.2 mm 3 mps 756 mmHg 56%
13:00 +27°C° 0.4 mm 3 mps 756 mmHg 56%
14:00 +28°C° 0.4 mm 3 mps 755 mmHg 55%
15:00 +28°C° 0.4 mm 4 mps 755 mmHg 55%
16:00 +27°C° 0.6 mm 3 mps 755 mmHg 58%
17:00 +26°C° 0.6 mm 3 mps 755 mmHg 62%
18:00 +25°C° 0.6 mm 3 mps 755 mmHg 65%
19:00 +25°C° 0 mm 4 mps 755 mmHg 65%
20:00 +25°C° 0 mm 5 mps 755 mmHg 65%
21:00 +23°C° 0 mm 6 mps 756 mmHg 65%
22:00 +23°C° 0 mm 5 mps 755 mmHg 65%
23:00 +23°C° 0 mm 5 mps 755 mmHg 66%

23 Septiembre, Miércoles

Tiempo Temperatura Precipitaciones Viento Presión Humedad
00:00 +22°C° 0 mm 4 mps 755 mmHg 66%
01:00 +22°C° 0 mm 4 mps 754 mmHg 66%
02:00 +22°C° 0 mm 3 mps 754 mmHg 66%
03:00 +22°C° 0 mm 3 mps 754 mmHg 67%
04:00 +22°C° 0.1 mm 3 mps 754 mmHg 68%
05:00 +22°C° 0.1 mm 3 mps 754 mmHg 69%
06:00 +23°C° 0.1 mm 2 mps 754 mmHg 70%
07:00 +24°C° 0.2 mm 2 mps 754 mmHg 66%
08:00 +25°C° 0.2 mm 2 mps 754 mmHg 62%
09:00 +26°C° 0.2 mm 2 mps 754 mmHg 58%
10:00 +27°C° 0.3 mm 3 mps 754 mmHg 54%
11:00 +28°C° 0.3 mm 4 mps 754 mmHg 50%
12:00 +30°C° 0.3 mm 4 mps 754 mmHg 46%
13:00 +29°C° 0.1 mm 5 mps 753 mmHg 47%
14:00 +29°C° 0.1 mm 5 mps 753 mmHg 49%
15:00 +29°C° 0.1 mm 5 mps 752 mmHg 50%
16:00 +28°C° 0.1 mm 5 mps 752 mmHg 55%
17:00 +27°C° 0.1 mm 4 mps 752 mmHg 59%
18:00 +26°C° 0.1 mm 4 mps 752 mmHg 63%
19:00 +26°C° 0.3 mm 4 mps 752 mmHg 66%
20:00 +26°C° 0.3 mm 4 mps 752 mmHg 68%
21:00 +25°C° 0.3 mm 4 mps 752 mmHg 70%
22:00 +25°C° 0.3 mm 4 mps 752 mmHg 69%
23:00 +25°C° 0.3 mm 4 mps 752 mmHg 68%

24 Septiembre, Jueves

Tiempo Temperatura Precipitaciones Viento Presión Humedad
00:00 +25°C° 0.3 mm 4 mps 751 mmHg 67%
01:00 +25°C° 0.3 mm 4 mps 750 mmHg 69%
02:00 +25°C° 0.3 mm 4 mps 750 mmHg 70%
03:00 +23°C° 0.3 mm 4 mps 749 mmHg 72%
04:00 +23°C° 0.6 mm 4 mps 749 mmHg 72%
05:00 +23°C° 0.6 mm 5 mps 749 mmHg 72%
06:00 +23°C° 0.6 mm 5 mps 749 mmHg 72%
07:00 +25°C° 0.3 mm 5 mps 748 mmHg 63%
08:00 +26°C° 0.3 mm 5 mps 748 mmHg 54%
09:00 +27°C° 0.3 mm 5 mps 748 mmHg 45%
10:00 +28°C° 0 mm 6 mps 748 mmHg 41%
11:00 +29°C° 0 mm 7 mps 747 mmHg 37%
12:00 +31°C° 0 mm 8 mps 747 mmHg 33%
13:00 +29°C° 0 mm 8 mps 746 mmHg 35%
14:00 +29°C° 0 mm 9 mps 746 mmHg 36%
15:00 +29°C° 0 mm 9 mps 745 mmHg 37%
16:00 +28°C° 0 mm 8 mps 746 mmHg 35%
17:00 +27°C° 0 mm 8 mps 746 mmHg 34%
18:00 +27°C° 0 mm 7 mps 746 mmHg 33%
19:00 +26°C° 0 mm 8 mps 747 mmHg 34%
20:00 +23°C° 0 mm 8 mps 747 mmHg 36%
21:00 +22°C° 0 mm 9 mps 748 mmHg 38%
22:00 +21°C° 0 mm 9 mps 748 mmHg 40%
23:00 +19°C° 0 mm 10 mps 748 mmHg 42%
Mostrar más